Location: Boiro
(42.6475°N, 8.8834°W)
Time: 23:34:37
(UTC+01:00)

A-11 Canister half - Pass Details

Date: 08 December 2021
Orbit: 1516 x 1684 km, 47.2° (Epoch: 18 January)

Event Time Altitude Azimuth Distance (km) Brightness Sun altitude
Rises 12:53:09 0° 294° (WNW) 4,859 11.3 24.1°
Reaches altitude 10° 12:56:15 10° 293° (WNW) 3,890 10.9 24.2°
Maximum altitude 13:06:15 77° 210° (SSW) 1,712 9.9 24.4°
Drops below altitude 10° 13:16:24 10° 127° (SE) 3,941 11.8 24.5°
Sets 13:19:33 0° 126° (SE) 4,925 12.2 24.6°
